RH
95 99 100 102 101 101 101 100 101 101 100 102 102 98 92 88 87 89 94 98 99 100 98 96 95 95 95 95 92 90 88 84 80 76 73 72 72 76 82 89 91 74 60 72 89 92 95 100 102 102 102 101 101 100 100 100 100 100 100 100 100 100 101
76 83 88 93 95 98 100 100 101 102 101 102 104 102 98 96 95 96 99 101 101 101 101 101 102 102 102 102 101 99 97 95 93 91 88 87 83 82 85 89 93 91 81 79 89 95 98 101 103 102 101 100 100 100 100 100 100 100 100 100 100 100 100
80 83 84 85 87 92 97 99 100 100 101 103 105 103 100 99 100 100 100 101 101 101 100 100 100 100 100 100 99 98 98 96 96 97 96 97 97 95 95 95 95 94 91 90 94 99 101 101 102 102 101 101 101 100 100 100 100 100 100 100 100 101 100
96 97 97 95 92 92 93 94 96 98 100 102 105 104 102 101 100 100 101 101 99 95 90 86 84 83 82 82 81 82 83 84 85 87 88 89 93 95 95 97 99 97 95 93 93 98 103 103 103 102 100 101 101 101 100 101 101 100 100 100 100 100 100
100 99 101 101 99 100 97 92 91 95 99 101 102 102 101 100 100 101 104 100 92 84 79 76 74 70 66 63 61 61 61 63 65 67 70 72 76 81 84 88 91 93 93 92 89 92 97 99 101 102 101 101 102 101 100 101 100 100 100 100 100 100 100
98 98 100 100 99 102 102 97 93 95 99 100 100 100 100 101 101 103 105 98 87 82 80 76 71 65 60 55 52 49 46 45 45 45 48 51 54 59 63 68 73 77 81 82 83 85 87 90 93 95 98 99 101 102 102 102 101 101 102 101 101 101 100
100 100 100 100 100 101 101 100 99 99 100 100 100 101 101 102 102 102 103 97 89 86 84 76 65 56 52 47 44 43 41 39 37 36 36 37 39 42 44 47 51 54 58 61 66 70 74 78 82 85 88 91 92 94 98 100 99 99 100 102 101 101 101
101 101 101 100 101 101 99 99 99 100 101 100 101 102 101 102 101 100 101 101 97 93 86 73 57 46 41 37 35 35 34 34 33 33 33 32 32 34 37 39 40 42 43 44 46 49 53 58 64 69 75 80 83 85 88 94 95 92 93 96 97 96 97
100 100 101 100 101 101 98 98 99 100 101 100 99 100 100 100 101 100 100 100 98 94 85 71 56 45 39 35 33 32 30 30 30 30 31 31 32 33 34 36 37 38 39 39 39 39 39 40 43 47 53 59 66 71 76 83 87 87 88 90 91 92 94
100 100 100 100 100 100 99 100 101 100 101 101 99 100 101 101 100 99 100 101 102 100 92 77 61 48 40 35 32 30 28 29 30 30 31 33 34 36 37 38 39 39 39 39 37 36 35 35 34 35 38 40 44 50 56 61 67 73 77 81 82 83 86
100 100 100 100 100 100 100 100 100 100 101 102 101 100 100 100 99 100 101 101 98 92 81 67 53 44 40 36 35 34 32 32 33 35 37 40 43 45 46 45 46 45 44 42 39 36 34 33 32 31 33 34 35 38 40 43 46 51 56 61 64 66 69
100 100 100 100 100 100 100 99 100 101 101 101 102 101 99 98 98 99 98 91 82 72 62 55 49 46 46 47 49 51 50 48 46 45 46 51 57 61 60 58 56 55 54 52 49 45 41 39 38 37 37 37 37 37 36 36 37 37 39 43 47 48 52
100 100 100 100 100 100 100 100 100 101 101 101 103 102 99 92 87 85 82 76 70 64 61 60 61 63 67 72 75 75 73 69 65 64 65 68 73 75 75 74 71 67 64 61 57 53 50 48 47 45 44 44 43 42 40 39 38 37 35 35 36 37 39
101 101 101 101 101 101 101 102 101 101 102 101 99 97 91 82 77 75 75 75 77 78 79 81 83 84 87 89 89 85 80 74 71 71 72 74 76 77 76 74 71 68 65 62 58 55 52 51 51 49 48 48 47 46 45 43 42 41 39 37 35 34 34
101 102 103 103 103 103 102 103 102 102 102 101 98 95 91 86 84 86 89 93 97 97 97 95 93 90 88 86 85 81 77 73 70 68 67 68 68 69 68 66 64 63 61 59 57 54 51 50 50 50 49 49 48 48 46 45 44 42 41 40 38 35 34
101 102 102 102 103 103 102 103 103 102 102 102 101 101 99 98 97 98 100 102 102 99 95 90 85 82 79 77 76 75 73 70 69 67 67 66 65 64 62 61 59 58 57 56 55 54 52 52 51 51 51 50 50 50 49 48 47 45 43 42 41 39 37
100 101 102 102 103 103 102 103 103 102 101 101 101 101 101 101 100 98 98 97 93 89 84 81 77 75 72 71 71 70 70 69 68 67 65 63 61 60 59 58 57 57 56 56 55 55 55 55 55 54 54 54 54 54 54 53 50 49 49 48 46 43 42
89 91 92 94 95 96 97 98 99 97 95 94 92 90 90 90 88 86 85 84 82 80 78 77 76 74 72 70 68 67 66 65 64 62 61 60 59 59 59 59 59 58 57 57 57 56 56 55 55 54 53 53 53 53 52 51 49 48 48 48 46 44 44
88 88 87 85 85 86 86 87 87 86 84 83 82 81 81 81 80 80 81 80 80 80 78 76 73 70 68 66 64 64 64 63 63 62 61 61 60 59 59 59 58 56 55 54 53 52 50 49 48 48 47 46 46 46 46 45 43 42 42 41 40 39 39
96 96 95 94 92 90 88 88 88 88 88 88 87 86 85 83 82 82 80 79 77 75 73 71 70 68 68 67 66 66 66 66 65 63 61 59 57 56 55 53 51 49 48 47 46 45 45 44 43 42 42 42 41 41 41 41 40 39 39 38 37 36 36
92 92 93 93 92 90 88 87 87 87 87 87 86 85 83 81 80 79 77 76 75 75 75 75 74 73 72 70 68 66 65 63 60 57 55 53 50 49 47 46 45 44 43 43 42 41 40 39 38 37 36 36 35 35 34 34 34 34 34 34 34 34 35
85 84 84 85 86 85 84 83 83 83 84 83 83 82 81 79 78 78 77 76 75 75 75 74 72 70 68 65 62 59 56 54 51 49 48 46 45 44 43 42 40 38 36 34 32 30 28 27 25 24 23 22 21 20 20 20 20 20 21 22 22 23 24
83 82 83 85 87 88 87 85 83 82 83 82 81 79 78 77 76 74 73 71 69 68 67 65 62 60 56 54 51 50 48 47 45 44 43 41 39 36 33 30 27 24 22 20 18 17 16 15 15 14 14 14 14 14 14 14 15 15 16 16 16 16 15
77 76 77 79 82 82 81 79 78 77 76 75 73 72 71 70 68 66 64 62 60 58 56 53 51 49 47 46 45 43 42 40 37 34 31 27 24 21 19 17 16 15 15 15 15 16 17 17 18 19 19 19 19 20 20 21 21 21 22 22 22 22 20
68 68 68 69 69 69 69 68 67 66 65 64 63 62 60 59 57 55 54 52 51 49 48 47 45 43 40 37 34 31 28 25 22 20 18 17 16 16 16 16 17 19 20 21 23 24 26 27 29 30 30 31 30 30 30 30 30 30 30 30 30 29 29
62 61 61 61 60 59 59 58 57 56 56 55 54 53 52 51 50 48 47 46 44 42 40 37 34 30 26 23 21 19 17 17 17 17 18 19 20 22 24 26 28 30 31 33 35 36 37 38 38 38 37 35 33 32 30 29 28 27 27 26 26 26 26
57 57 56 56 55 54 53 52 51 50 50 49 48 46 45 43 41 39 37 34 32 29 26 23 21 18 17 17 17 17 19 21 23 26 29 32 35 36 38 39 40 41 42 42 42 41 38 36 33 30 27 25 23 21 20 20 19 18 18 18 18 18 18
53 52 51 50 49 48 47 45 44 42 41 40 38 36 33 30 28 26 24 22 20 19 17 17 17 19 20 22 24 27 30 33 36 40 43 46 47 47 48 48 48 45 42 38 34 29 25 23 21 20 19 18 18 18 19 20 20 19 19 20 19 19 19
47 46 45 44 42 41 39 37 34 32 30 28 26 24 22 21 20 19 18 18 18 19 20 23 26 30 33 36 39 41 43 46 48 50 52 53 53 52 50 46 39 33 27 23 21 19 19 20 20 20 21 21 21 22 23 24 24 24 24 24 24 24 24
38 37 35 34 32 31 29 26 24 22 21 20 21 21 21 22 23 24 27 29 29 30 34 38 43 46 49 51 53 55 55 56 56 57 56 54 50 43 35 29 24 21 20 21 21 22 22 22 22 23 24 24 24 26 27 29 30 30 30 30 30 30 30
29 28 27 26 25 24 23 23 24 25 27 30 33 35 37 39 40 42 44 46 47 49 53 58 61 64 66 67 67 66 65 63 61 58 51 42 34 27 23 22 22 22 23 23 24 24 23 23 23 23 24 25 26 27 28 30 30 31 31 31 31 32 32
24 24 24 23 24 25 28 31 34 38 45 52 57 61 61 61 62 65 67 69 68 70 73 77 78 78 78 77 75 72 69 63 55 45 35 28 25 24 24 25 24 23 23 23 23 24 25 25 25 24 25 28 30 32 33 34 34 33 32 30 28 28 29
24 24 25 26 27 28 30 33 37 43 52 62 71 76 76 77 82 86 87 85 83 83 86 88 87 86 84 81 77 70 60 48 37 30 27 26 27 27 27 26 23 22 22 23 24 27 29 30 31 32 34 37 40 43 44 46 46 43 39 34 32 30 29
21 21 21 21 21 20 21 21 23 29 40 53 65 71 72 76 84 91 92 89 87 88 90 91 91 90 85 76 65 53 41 32 29 29 29 29 28 27 26 25 23 22 23 26 29 32 35 37 39 41 44 47 50 53 55 57 59 58 53 49 46 45 44
16 16 16 15 15 15 15 15 16 23 35 48 56 58 60 68 81 90 93 92 89 90 92 93 90 82 70 56 43 35 31 31 32 31 30 29 28 27 26 25 26 27 29 31 34 38 41 44 46 48 52 54 58 62 65 68 70 70 68 67 67 67 67
13 13 13 14 13 13 13 14 18 27 38 49 55 57 62 72 84 92 96 97 94 90 86 80 69 55 44 36 33 33 34 33 32 31 30 29 28 27 27 28 30 32 33 35 39 43 46 48 50 52 56 60 64 68 73 76 78 78 78 79 81 82 83
Wind_Speed
59 60 61 63 64 65 65 65 65 65 64 63 63 63 63 63 63 62 62 61 60 60 60 59 59 59 58 58 58 59 59 60 61 62 62 63 63 64 64 63 63 62 60 60 61 61 60 61 62 63 64 64 64 64 63 63 63 63 63 64 65 64 64
57 58 60 62 65 67 67 67 67 66 65 63 63 62 61 60 60 59 59 58 58 57 56 56 56 56 56 57 57 57 58 59 60 60 61 62 63 64 64 64 64 63 62 62 63 63 62 61 61 61 61 62 62 61 62 62 63 63 64 65 66 66 65
57 57 58 59 62 66 67 67 66 65 63 61 60 59 59 59 58 58 57 56 55 54 53 53 53 54 55 56 56 57 57 58 59 60 61 62 62 63 64 65 66 66 65 65 66 66 65 64 63 62 62 62 62 62 63 64 65 65 66 67 68 68 68
55 56 58 59 61 63 63 62 61 59 58 58 58 58 58 59 58 57 56 55 54 53 53 53 54 55 56 57 57 57 58 58 59 60 61 62 63 64 65 66 66 67 67 67 68 69 70 69 68 67 67 67 67 68 68 69 69 69 70 71 71 72 72
55 56 57 59 59 59 59 58 58 58 58 58 59 59 59 59 58 56 55 55 55 55 56 56 56 57 58 58 59 59 59 60 60 61 61 62 63 65 66 67 68 68 69 69 68 70 72 73 72 72 73 73 74 75 75 75 75 76 76 76 77 77 77
54 55 56 57 58 57 57 58 58 59 60 61 61 61 60 58 56 55 55 56 56 57 57 58 58 59 59 60 61 61 62 62 63 63 63 64 65 66 67 68 69 69 70 70 70 71 72 74 74 74 75 76 77 78 79 80 80 80 80 81 81 81 80
54 55 56 57 58 58 58 58 59 60 62 63 62 60 58 56 55 56 57 58 59 60 59 59 59 60 61 62 62 63 64 65 66 66 67 67 68 68 69 69 70 71 71 72 72 73 74 75 76 77 77 78 79 80 80 81 82 82 82 82 82 82 81
57 56 55 56 58 60 60 60 61 61 61 61 59 57 56 56 57 58 60 62 64 64 62 62 61 61 62 62 63 64 65 66 67 68 69 70 71 71 72 72 73 73 73 74 74 74 76 77 78 79 79 81 82 82 82 83 84 84 84 84 84 83 83
57 57 57 57 58 60 61 61 61 60 59 58 58 58 59 60 61 62 63 65 67 66 65 64 64 63 63 63 64 66 67 68 69 70 71 72 73 73 74 75 76 76 76 76 76 76 77 79 80 81 82 83 84 84 85 85 86 86 86 87 87 86 85
59 59 59 59 59 60 61 61 61 60 60 61 62 62 64 65 67 67 67 68 68 67 67 67 66 66 66 67 69 70 72 73 74 74 74 75 75 75 76 77 77 78 78 78 78 78 79 80 80 82 83 85 85 86 87 88 88 87 87 88 88 87 86
62 62 61 61 61 62 63 64 64 64 65 66 67 67 68 69 70 69 68 68 68 68 68 69 69 70 71 73 74 75 76 76 77 78 78 78 78 78 78 79 79 80 80 80 80 80 80 81 81 82 84 85 86 87 88 89 90 90 89 89 90 88 87
62 63 63 63 64 64 64 66 67 68 68 69 71 71 71 71 70 69 69 69 70 70 71 73 74 75 77 78 78 78 78 79 79 80 81 81 81 81 81 81 82 82 82 82 82 81 81 82 82 83 84 85 86 87 88 89 90 91 91 91 91 90 88
61 61 62 64 65 66 66 67 69 70 71 71 73 73 73 71 70 70 71 72 74 75 76 77 78 78 79 79 79 80 80 81 81 82 83 83 83 84 84 84 84 84 84 84 84 83 82 83 84 85 85 86 87 88 89 89 90 91 92 92 92 91 90
63 63 64 65 67 68 70 71 73 74 75 75 75 75 75 74 74 74 75 77 78 79 79 79 80 80 80 80 81 82 82 83 84 84 84 85 85 85 85 86 86 86 86 86 86 85 84 84 86 86 86 87 89 90 90 91 92 92 93 93 93 93 92
68 69 69 70 71 73 74 76 76 77 78 78 78 78 78 77 77 78 79 80 81 81 81 82 82 82 82 82 83 84 85 85 85 86 86 86 86 87 87 88 88 88 88 88 87 87 86 86 86 87 87 88 89 90 91 92 92 93 94 94 94 94 93
74 74 74 75 76 77 78 79 79 79 80 80 80 80 80 80 80 81 81 82 82 83 83 83 84 84 84 84 85 86 86 87 87 87 87 87 87 88 88 88 88 88 88 87 87 86 86 86 86 87 87 88 89 90 91 92 92 92 93 94 94 93 93
75 76 77 78 79 80 80 81 82 81 82 82 83 83 83 83 83 83 83 84 84 84 84 85 85 86 86 86 86 87 87 88 88 87 87 87 86 86 86 86 86 86 86 86 86 86 86 86 87 87 88 89 90 91 92 93 93 92 93 95 95 93 93
75 76 78 79 80 81 82 83 84 85 85 86 87 87 87 87 86 85 85 85 86 86 86 86 86 87 87 87 87 87 87 87 86 86 85 85 84 84 84 85 86 86 86 87 88 88 89 89 89 90 91 92 93 94 96 97 96 96 97 98 98 96 96
74 76 77 79 80 81 82 83 85 86 86 87 87 88 88 87 87 86 86 86 86 86 86 86 86 86 86 85 84 84 84 84 84 84 84 85 85 85 86 87 88 88 89 89 90 91 91 91 92 92 93 94 95 96 97 98 99 99 100 101 100 100 100
74 75 76 78 79 81 82 83 84 84 85 85 86 86 86 86 85 85 84 84 84 84 84 83 83 83 83 83 83 83 84 85 85 86 86 86 86 87 87 88 88 88 89 89 90 90 91 91 92 92 93 94 95 96 97 98 99 100 100 101 101 101 102
73 73 74 76 77 78 79 80 81 82 82 82 82 82 82 82 81 81 81 81 81 81 81 82 82 83 84 84 84 85 85 86 86 86 86 86 86 86 86 87 87 87 88 88 89 90 91 91 92 93 94 95 96 97 98 99 100 101 102 103 103 103 103
70 71 72 73 74 75 76 76 77 77 78 79 79 79 79 80 80 80 80 80 81 81 82 82 83 84 84 84 84 85 85 85 85 85 85 85 85 86 86 87 87 88 89 89 90 91 92 92 93 94 95 96 97 98 99 99 100 100 102 103 104 105 106
70 71 71 72 74 75 76 76 77 77 78 79 80 80 80 81 81 82 82 82 81 82 82 82 83 83 83 83 83 84 84 84 85 85 85 86 86 87 87 88 88 88 89 89 89 89 90 90 90 91 91 92 93 93 93 93 94 94 95 96 97 99 102
71 72 72 73 75 76 77 78 78 78 79 80 80 80 81 81 81 81 81 81 81 81 81 81 82 82 82 82 83 84 84 85 85 86 86 86 86 86 86 86 85 85 85 84 83 83 82 82 82 82 83 83 84 85 85 85 85 86 87 87 88 89 91
70 71 71 72 74 75 76 77 77 77 78 78 78 79 79 80 80 80 80 80 81 81 81 81 81 82 82 83 83 83 84 84 84 83 83 82 82 81 80 79 78 77 77 76 75 75 75 75 76 76 77 78 79 80 81 82 82 82 83 84 85 85 85
69 70 70 71 73 74 75 75 76 76 77 78 78 78 79 79 80 80 81 81 81 82 82 82 82 81 81 81 81 81 80 79 78 77 76 75 74 73 72 71 71 70 71 71 71 72 73 74 75 76 77 79 80 81 81 82 82 82 83 84 85 84 84
70 70 71 72 73 73 74 75 76 77 77 78 78 79 79 80 80 81 81 82 82 81 81 80 79 78 77 76 75 74 73 71 70 68 67 66 66 66 66 67 67 68 69 70 71 72 73 74 75 75 76 77 78 79 79 80 81 81 81 82 83 83 82
70 71 72 72 73 73 74 75 76 77 77 78 78 78 79 79 79 79 79 79 78 78 76 74 73 71 70 69 68 66 64 63 62 62 62 62 63 64 65 66 67 67 68 69 69 70 70 70 71 72 73 74 74 75 75 76 76 76 77 77 78 78 78
71 72 73 73 73 74 74 75 75 76 76 76 76 76 76 75 75 75 74 73 72 70 68 66 65 64 63 62 61 60 59 59 59 59 60 61 62 63 63 64 64 64 64 65 65 66 66 67 67 68 68 69 69 69 69 69 69 69 70 70 71 71 71
73 73 74 73 73 74 74 73 73 73 72 71 71 70 70 69 68 67 66 65 64 62 61 60 59 59 58 57 57 57 57 58 58 58 59 59 60 60 60 60 60 60 61 61 62 62 62 63 62 62 62 62 62 62 62 62 62 62 63 63 64 64 64
74 74 74 74 73 72 71 70 69 68 66 65 64 63 63 62 62 61 59 58 57 56 56 56 56 56 56 56 56 56 56 56 56 56 56 56 55 55 55 56 57 57 58 58 57 56 56 55 54 54 53 53 53 53 54 55 55 56 56 57 58 58 58
74 73 73 72 70 69 67 65 64 62 60 59 58 58 58 58 57 56 56 56 55 54 54 55 55 54 54 54 54 54 54 53 52 52 51 50 51 52 53 53 54 54 53 51 49 48 47 46 46 46 46 46 46 47 48 49 49 50 50 51 52 52 53
72 71 70 68 67 66 64 62 61 59 57 56 56 56 56 55 55 54 55 55 54 53 53 52 52 51 51 51 51 50 49 48 47 47 47 47 48 49 49 49 48 47 45 43 42 41 40 40 41 42 41 42 42 42 43 44 45 45 46 46 46 47 47
68 68 67 65 64 63 62 60 58 56 55 54 54 54 54 53 53 52 53 52 51 50 49 49 48 47 47 47 46 45 44 43 43 43 44 44 44 43 42 41 40 39 38 37 37 36 36 37 38 38 39 39 39 39 40 40 41 42 42 42 42 42 43
64 64 64 62 61 60 59 56 54 51 50 50 50 51 50 49 48 48 48 47 46 45 45 44 44 43 43 42 41 40 39 40 40 41 40 39 37 36 35 34 34 33 33 33 33 33 34 35 35 36 36 37 37 37 37 37 38 38 39 39 39 39 39
59 59 58 58 57 56 54 51 48 46 45 45 45 45 44 43 42 42 42 42 42 42 41 40 38 38 37 37 36 37 37 38 37 36 35 33 32 31 30 29 29 29 29 30 31 31 32 33 34 34 35 35 34 34 35 35 36 36 36 36 36 36 35
Wind_Direction
273 271 269 268 267 266 266 267 268 269 269 269 269 270 271 271 271 270 270 269 269 268 268 268 268 268 268 267 266 266 265 265 265 265 264 264 263 263 263 262 263 263 262 261 262 261 261 261 261 261 262 262 262 261 259 257 254 251 250 248 247 247 249
276 275 273 272 270 269 269 269 270 271 271 271 271 271 271 271 270 269 269 269 268 267 267 267 266 266 266 265 265 265 264 264 264 264 264 263 263 262 261 260 259 259 259 258 259 259 259 258 258 258 258 258 258 257 257 255 253 252 250 248 248 249 251
275 275 274 273 271 270 270 270 271 270 270 270 270 270 270 270 269 268 267 267 266 266 266 267 267 267 267 267 266 266 266 265 264 264 263 263 263 263 262 261 260 258 257 256 256 257 257 256 256 255 255 255 255 255 256 256 255 254 253 252 252 254 255
273 273 273 272 271 270 269 269 269 269 269 269 269 269 269 268 266 265 265 264 265 267 269 270 270 270 270 270 270 269 269 268 267 266 265 265 264 264 264 263 262 261 259 257 256 256 256 255 255 254 253 254 254 255 256 256 256 256 256 256 256 256 257
272 273 272 271 270 269 268 268 268 269 270 269 269 268 267 265 263 262 262 263 266 268 271 272 272 272 273 273 273 273 272 272 271 271 270 268 267 267 266 265 265 264 263 261 259 258 258 258 257 256 256 255 256 256 256 256 257 257 257 257 258 258 259
271 271 271 269 268 267 266 267 269 270 270 270 268 267 265 264 263 263 264 266 269 271 272 272 272 273 273 274 275 275 275 275 275 274 274 272 271 270 269 268 267 267 266 265 263 261 261 261 260 260 259 259 259 259 259 259 259 259 259 259 259 260 261
268 269 268 266 265 264 265 267 269 269 269 267 266 265 264 264 264 265 267 269 272 273 273 272 272 273 274 274 275 275 276 276 276 276 276 275 274 273 272 270 269 268 268 267 266 265 264 263 263 262 262 261 261 261 261 262 261 261 261 261 261 261 262
266 265 266 266 265 265 268 270 270 268 266 265 264 264 264 264 265 266 267 268 271 272 272 271 272 273 274 274 275 276 276 276 276 276 276 275 275 274 273 271 270 269 268 268 267 266 266 266 265 265 264 263 263 262 262 262 262 262 262 262 262 262 263
266 266 267 267 267 267 269 269 268 267 264 263 264 264 264 264 264 265 266 267 269 270 270 270 271 273 274 275 276 277 277 277 277 276 275 275 274 273 273 272 271 270 269 268 267 266 266 265 265 265 265 265 265 264 264 263 263 262 262 262 262 262 262
268 268 269 268 267 265 264 263 263 263 262 262 262 262 262 263 265 266 267 268 268 268 269 270 272 273 274 276 277 278 278 278 278 277 276 275 274 273 272 271 271 270 270 269 268 268 267 266 265 265 265 264 264 265 264 264 264 263 262 262 262 261 261
268 268 268 267 266 264 262 261 260 260 260 261 261 262 264 266 268 269 269 269 270 270 270 271 273 274 275 276 277 278 278 278 278 277 276 275 274 272 272 271 271 270 270 270 269 269 268 268 267 266 265 264 264 264 264 264 264 264 263 263 263 262 262
266 266 266 266 265 263 261 259 258 258 259 260 261 264 268 270 270 270 271 271 272 272 273 274 275 276 276 277 277 277 277 277 277 277 276 275 275 274 273 273 272 272 271 271 270 270 269 269 268 267 266 266 265 264 264 263 263 263 263 263 263 263 263
264 265 265 265 263 261 259 258 259 261 263 264 265 268 271 272 272 272 273 273 274 274 275 276 276 276 276 276 276 277 277 277 277 277 276 276 276 276 275 275 274 274 273 273 272 271 270 270 269 268 267 267 267 266 266 265 265 264 264 263 263 263 263
267 267 267 267 266 265 264 264 265 267 269 270 271 272 273 274 274 275 275 275 275 275 275 275 275 276 276 276 276 277 277 277 277 277 277 276 276 276 276 276 275 275 275 274 273 272 271 270 270 269 268 268 267 267 267 266 266 265 265 265 264 263 263
270 270 270 270 270 269 269 270 270 271 272 273 273 274 275 275 275 275 275 274 274 274 275 275 275 276 276 276 277 277 277 277 277 277 277 276 276 276 276 276 276 275 275 274 274 273 273 272 271 270 269 269 268 268 267 267 266 266 266 265 265 264 264
270 270 270 270 270 270 271 271 271 272 272 273 273 274 274 274 274 274 274 274 274 275 275 276 276 276 276 277 277 277 277 277 277 277 276 276 276 276 276 276 275 275 274 274 274 274 273 272 272 271 270 270 269 269 268 267 267 267 266 266 265 265 264
270 270 270 270 271 271 271 272 272 273 273 274 275 275 275 275 275 275 275 276 276 276 276 277 277 277 276 277 277 277 277 277 276 276 276 275 275 275 275 274 274 274 274 274 273 273 273 272 272 271 271 270 270 270 269 269 268 267 267 267 266 265 265
270 270 270 270 271 271 272 272 273 273 273 274 275 275 275 276 276 276 276 277 277 277 277 277 277 277 277 276 276 276 276 276 275 275 275 275 274 274 274 274 273 273 273 273 273 273 272 272 271 271 271 270 270 270 270 269 269 268 268 267 267 266 265
271 271 271 271 271 271 272 272 272 273 273 273 273 274 274 275 275 276 276 277 277 277 277 277 276 276 276 276 275 275 275 275 275 275 275 275 274 274 274 274 273 273 273 273 273 273 272 272 271 271 271 270 270 270 269 270 269 269 268 268 267 266 266
273 273 272 272 272 272 272 272 273 273 273 273 274 274 274 275 275 276 276 276 276 276 276 276 276 276 275 275 275 275 275 275 275 275 275 275 275 274 274 274 274 274 273 273 273 273 273 272 272 271 271 270 270 270 270 269 269 269 268 268 267 267 266
274 274 274 274 273 273 273 273 273 274 274 274 274 275 275 275 275 275 275 275 275 275 276 276 276 276 276 276 276 276 276 276 276 276 275 275 275 275 275 274 274 274 274 274 274 274 273 273 273 272 272 271 271 270 270 270 269 269 269 268 268 267 266
276 275 275 275 275 275 274 274 274 275 275 275 275 275 276 276 275 275 275 275 275 276 276 276 276 276 276 276 277 276 276 276 276 277 277 276 276 276 276 276 276 275 275 275 274 274 274 273 273 273 272 272 271 271 270 270 269 269 269 269 268 267 267
276 276 276 276 276 276 276 275 275 275 275 275 276 276 276 276 276 276 276 276 276 276 276 277 277 277 277 277 277 277 277 277 277 277 277 277 277 277 277 277 276 276 276 275 275 274 274 273 273 273 272 272 271 271 270 270 270 269 269 269 268 268 267
277 276 276 276 276 276 276 276 276 276 276 276 276 276 276 276 277 277 277 277 277 277 277 277 277 277 278 278 278 278 278 278 278 278 278 278 278 277 277 277 277 276 276 276 275 275 274 274 274 273 273 272 272 272 271 271 271 270 270 269 269 269 268
278 278 277 277 277 277 277 277 277 277 277 277 277 277 277 277 277 277 277 277 277 277 277 277 277 277 277 277 277 277 277 277 277 277 277 277 277 277 277 277 277 277 276 276 276 276 276 275 275 275 274 274 273 273 272 272 271 271 270 270 269 269 268
280 279 279 278 278 278 278 278 278 278 278 278 278 278 278 278 278 278 277 277 277 277 277 277 277 277 277 277 277 277 277 277 277 277 277 277 277 277 277 277 277 277 277 277 277 277 277 277 276 276 276 275 275 274 274 273 272 271 271 270 270 269 268
281 280 280 279 278 278 278 278 278 278 278 278 278 278 277 277 277 277 277 277 277 277 277 277 277 277 276 276 276 276 276 276 276 276 276 276 276 277 277 277 277 277 278 278 277 277 277 277 276 276 275 275 275 274 274 274 273 272 272 271 270 270 269
282 281 280 279 279 279 278 278 278 278 278 277 277 277 277 277 277 276 276 276 276 276 277 277 277 276 276 275 275 275 275 275 275 275 276 276 276 277 277 277 278 278 278 277 277 277 277 276 276 276 276 275 275 275 274 274 273 273 272 272 271 271 270
283 282 281 280 280 279 279 279 278 278 278 278 278 277 277 277 277 277 277 277 277 277 277 277 276 275 275 275 275 275 275 275 275 276 276 276 277 277 278 278 278 278 277 277 278 278 278 278 278 277 277 277 276 276 275 274 274 273 273 272 272 271 270
284 283 282 282 281 281 280 280 279 279 279 279 279 278 278 277 277 277 277 277 277 277 277 276 275 275 275 275 275 275 276 276 277 277 278 278 278 278 278 278 279 279 280 280 280 280 280 280 280 279 279 279 278 278 277 276 275 275 274 273 272 272 271
285 284 283 283 282 282 281 281 280 280 280 280 279 278 278 277 277 277 277 277 276 276 275 275 274 275 275 276 276 277 277 278 278 278 279 279 279 279 280 281 281 282 283 283 283 283 282 282 282 282 282 282 281 281 280 279 278 277 276 275 274 273 272
285 284 284 283 283 282 282 281 281 281 280 280 278 277 277 277 276 276 276 275 275 275 274 274 274 275 276 276 277 277 277 278 278 278 279 279 280 281 283 283 284 284 284 284 284 285 285 285 286 286 286 286 286 285 284 283 282 281 279 278 277 276 274
285 285 284 284 283 282 282 281 281 280 279 278 277 276 275 276 276 275 275 275 275 275 275 275 275 275 275 276 276 276 277 277 277 278 279 280 282 283 284 284 284 284 285 285 286 287 288 289 290 291 291 290 289 288 287 286 285 283 282 280 279 277 276
286 285 284 284 283 282 281 280 280 279 278 276 276 275 275 276 276 275 275 275 275 275 274 274 274 274 274 275 275 275 275 276 276 278 280 281 282 282 283 283 284 285 286 288 290 291 292 293 294 295 294 293 292 291 290 288 287 285 284 282 281 279 278
286 285 284 283 282 281 281 281 280 278 277 276 275 275 275 275 275 274 274 274 274 273 273 273 273 273 273 273 273 273 274 275 277 279 280 280 281 281 282 283 285 287 289 291 293 294 296 297 298 298 297 296 295 294 292 290 288 286 285 284 283 282 281
287 286 285 284 283 283 282 282 281 279 277 275 274 274 274 274 273 272 272 273 273 272 272 272 272 271 271 271 271 273 275 277 277 278 278 279 280 280 282 284 287 289 291 293 294 296 297 299 300 300 300 299 298 296 294 292 290 288 287 286 286 285 284